CW8843 Weather Reports


time (UTC)temp
C
wind
direction
speed
KPH
gust
KPH
rain 1hr
cm
rain 24hr
cm
rain mn
cm
humidity
%
barometer
mb
20260502194619 19 246 8.0 22.5 0.00 0.00 0.00 20 1019.4
20260502193613 19 300 6.4 17.7 0.00 0.00 0.00 26 1019.5
20260502192621 18 248 8.0 22.5 0.00 0.00 0.00 26 1019.6
20260502191629 18 290 9.7 24.1 0.00 0.00 0.00 27 1019.6
20260502190621 18 290 6.4 19.3 0.00 0.00 0.00 27 1019.8
20260502185621 18 298 8.0 17.7 0.00 0.00 0.00 27 1019.9
20260502184629 18 268 4.8 12.9 0.00 0.00 0.00 28 1020.0
20260502183639 18 284 9.7 14.5 0.00 0.00 0.00 29 1020.2
20260502181617 17 277 8.0 14.5 0.00 0.00 0.00 31 1020.3
20260502180631 17 286 6.4 12.9 0.00 0.00 0.00 33 1020.4
20260502163632 15 306 3.2 8.0 0.00 0.00 0.00 36 1020.7
20260502162619 14 327 3.2 9.7 0.00 0.00 0.00 36 1020.6
20260502161630 14 328 4.8 8.0 0.00 0.00 0.00 36 1020.7
20260502160619 14 313 4.8 8.0 0.00 0.00 0.00 36 1020.6
20260502151643 13 312 1.6 4.8 0.00 0.00 0.00 38 1020.5
20260502150630 13 312 0.0 6.4 0.00 0.00 0.00 45 1020.6
20260502130626 7 122 14.5 24.1 0.00 0.00 0.00 48 1020.3
20260502123652 7 119 16.1 29.0 0.00 0.00 0.00 48 1019.9
20260502122640 7 141 17.7 27.4 0.00 0.00 0.00 50 1019.8
20260502121630 7 119 17.7 30.6 0.00 0.00 0.00 49 1019.9
20260502120621 7 115 19.3 29.0 0.00 0.00 0.00 51 1019.8
20260502115625 8 153 16.1 27.4 0.00 0.00 0.00 49 1020.0
20260502114613 7 134 12.9 24.1 0.00 0.00 0.00 51 1020.0
20260502113644 6 95 16.1 27.4 0.00 0.00 0.00 56 1020.0
20260502112652 7 116 12.9 25.7 0.00 0.00 0.00 54 1020.0
20260502111621 7 130 16.1 25.7 0.00 0.00 0.00 56 1019.9
20260502110615 7 111 16.1 24.1 0.00 0.00 0.00 51 1020.0
20260502105634 7 90 14.5 25.7 0.00 0.00 0.00 51 1020.0
20260502104619 7 137 16.1 25.7 0.00 0.00 0.00 53 1020.0
20260502103628 7 108 16.1 27.4 0.00 0.00 0.00 51 1020.1
20260502102619 7 96 17.7 29.0 0.00 0.00 0.00 51 1020.0
20260502101629 7 153 19.3 32.2 0.00 0.00 0.00 53 1019.9
20260502100619 7 87 19.3 35.4 0.00 0.00 0.00 55 1019.8
20260502090645 8 136 16.1 29.0 0.00 0.00 0.00 49 1019.7
20260502070653 10 122 12.9 25.7 0.00 0.00 0.00 47 1020.0
20260502065616 10 115 12.9 27.4 0.00 0.00 0.00 42 1020.0
20260502064626 10 107 17.7 27.4 0.00 0.00 0.00 44 1019.5
20260502063616 10 148 20.9 30.6 0.00 0.00 0.00 45 1019.5
20260502062645 10 117 17.7 27.4 0.00 0.00 0.00 43 1019.5
20260502060653 10 82 19.3 29.0 0.00 0.00 0.00 40 1019.3
20260502055613 10 84 16.1 27.4 0.00 0.00 0.00 41 1019.3
20260502054641 10 135 17.7 29.0 0.00 0.00 0.00 42 1019.4
20260502053628 10 142 17.7 25.7 0.00 0.00 0.00 42 1019.3
20260502052619 11 89 17.7 27.4 0.00 0.00 0.00 41 1019.2
20260502051627 11 98 17.7 27.4 0.00 0.00 0.00 39 1019.1
20260502050636 11 152 16.1 29.0 0.00 0.00 0.00 40 1019.0
20260502045617 11 116 17.7 30.6 0.00 0.00 0.00 41 1019.0
20260502044631 11 88 17.7 29.0 0.00 0.00 0.00 40 1019.1
20260502043621 11 141 16.1 25.7 0.00 0.00 0.00 39 1019.1
20260502042612 11 105 17.7 29.0 0.00 0.00 0.00 39 1019.0
20260502041623 12 96 16.1 27.4 0.00 0.00 0.00 38 1019.0
20260502040617 12 123 16.1 24.1 0.00 0.00 0.00 36 1019.0
20260502035616 13 89 11.3 19.3 0.00 0.00 0.00 35 1018.9
20260502034625 12 98 14.5 20.9 0.00 0.00 0.00 37 1018.8
20260502033612 12 101 14.5 20.9 0.00 0.00 0.00 37 1018.7
20260502032624 12 138 11.3 17.7 0.00 0.00 0.00 38 1018.5
20260502031612 12 89 12.9 20.9 0.00 0.00 0.00 38 1018.5
20260502030621 13 115 8.0 17.7 0.00 0.00 0.00 37 1018.3
20260502025621 13 80 12.9 17.7 0.00 0.00 0.00 37 1018.2
20260502024613 14 120 9.7 16.1 0.00 0.00 0.00 34 1018.1
20260502023640 16 65 6.4 14.5 0.00 0.00 0.00 29 1018.1
20260502022627 17 92 11.3 17.7 0.00 0.00 0.00 26 1017.9
20260502021616 17 74 8.0 16.1 0.00 0.00 0.00 25 1017.9
20260502020629 17 64 8.0 17.7 0.00 0.00 0.00 25 1017.8
20260502015612 18 51 6.4 14.5 0.00 0.00 0.00 24 1017.7
20260502014621 18 64 4.8 17.7 0.00 0.00 0.00 23 1017.7
20260502013629 18 92 4.8 16.1 0.00 0.00 0.00 22 1017.7
20260502012620 19 12 6.4 14.5 0.00 0.00 0.00 22 1017.6
20260502011628 19 295 1.6 6.4 0.00 0.00 0.00 24 1017.6
20260502010615 18 303 8.0 12.9 0.00 0.00 0.00 23 1017.6
20260502005613 18 287 6.4 14.5 0.00 0.00 0.00 23 1017.7
20260502004625 18 292 11.3 16.1 0.00 0.00 0.00 23 1017.7
20260502003612 19 281 9.7 14.5 0.00 0.00 0.00 23 1017.6
20260502002620 19 291 9.7 16.1 0.00 0.00 0.00 23 1017.7
20260502001615 19 318 11.3 20.9 0.00 0.00 0.00 22 1017.7
20260502000626 19 319 6.4 16.1 0.00 0.00 0.00 23 1017.7
20260501235626 19 323 8.0 16.1 0.00 0.00 0.00 23 1017.7
20260501234614 19 293 4.8 14.5 0.00 0.00 0.00 23 1017.8
20260501233623 19 313 6.4 16.1 0.00 0.00 0.00 24 1017.8
20260501232636 19 337 1.6 12.9 0.00 0.00 0.00 23 1017.9
20260501231622 18 309 6.4 12.9 0.00 0.00 0.00 23 1017.9
20260501230629 18 338 9.7 17.7 0.00 0.00 0.00 23 1018.0
20260501225630 18 329 9.7 16.1 0.00 0.00 0.00 23 1018.1
20260501224624 18 275 6.4 12.9 0.00 0.00 0.00 22 1018.2
20260501223613 18 293 8.0 14.5 0.00 0.00 0.00 23 1018.3
20260501222622 18 344 3.2 12.9 0.00 0.00 0.00 24 1018.5
20260501221614 18 329 8.0 14.5 0.00 0.00 0.00 23 1018.6
20260501220621 18 336 3.2 19.3 0.00 0.00 0.00 25 1018.7
20260501215643 18 333 1.6 11.3 0.00 0.00 0.00 23 1018.8
20260501214613 18 336 6.4 17.7 0.00 0.00 0.00 24 1018.9
20260501213623 18 288 9.7 19.3 0.00 0.00 0.00 24 1018.9
20260501212617 17 300 12.9 32.2 0.00 0.00 0.00 25 1019.1
20260501211628 17 287 6.4 12.9 0.00 0.00 0.00 24 1019.1
20260501210640 17 256 8.0 16.1 0.00 0.00 0.00 26 1019.2
20260501205620 17 293 12.9 19.3 0.00 0.00 0.00 25 1019.1
20260501204615 17 176 3.2 12.9 0.00 0.00 0.00 28 1019.2
20260501203625 16 311 4.8 20.9 0.00 0.00 0.00 26 1019.4
20260501202616 16 201 6.4 16.1 0.00 0.00 0.00 26 1019.3
20260501201631 16 317 12.9 19.3 0.00 0.00 0.00 26 1019.4
20260501200622 16 184 6.4 20.9 0.00 0.00 0.00 26 1019.4
20260501195623 16 301 14.5 22.5 0.00 0.00 0.00 26 1019.4